Vernon, British Columbia

12:11 PM PDT on August 21, 2017 (GMT -0700)
Vernon

Weather History for CWJV - July, 2013

Change the Weather History Date:

Wednesday, July 31, 2013

  Actual Average (CYLW) Record (CYLW)
Temperature  
Mean Temperature 73 °F -  
Max Temperature 91 °F 82 °F 100 °F (2003)
Min Temperature 55 °F 51 °F 41 °F (2008)
Cooling Degree Days 8    
Growing Degree Days 23 (Base 50)    
Moisture  
Dew Point 46 °F    
Average Humidity 41    
Maximum Humidity 70    
Minimum Humidity 11    
Precipitation  
Precipitation 0.00 in - - ()
Sea Level Pressure  
Sea Level Pressure 30.05 in    
Wind  
Wind Speed 5 mph ()    
Max Wind Speed 10 mph    
Max Gust Speed -    
Averages and records for this station are not official NWS values.
T = Trace of Precipitation, MM = Missing Value Source: Averaged Metar Reports

Daily Weather History Graph

Daily Weather History Graph

Search for Another Location

Airport or City:

Trip Planner

Search our weather history database for the weather conditions in past years. The results will help you decide how hot, cold, wet, or windy it might be!

Date:

Astronomy

Jul. 31, 2013 Rise Set
Actual Time 5:24 AM PDT 8:41 PM PDT
Civil Twilight 4:45 AM PDT 9:20 PM PDT
Nautical Twilight 3:53 AM PDT 10:11 PM PDT
Astronomical Twilight 2:45 AM PDT 11:18 PM PDT
Moon 12:23 AM PDT (7/31) 4:04 PM PDT (7/31)
Length of Visible Light 16h 34m
Length of Day
15h 16m
Waning Crescent, 31% of the Moon is Illuminated
Jul 31
Waning Crescent
Aug 6
New
Aug 14
First Quarter
Aug 20
Full
Aug 28
Last Quarter

Hourly Weather History & Observations

Time (PDT) Temp. Dew Point Humidity Pressure Visibility Wind Dir Wind Speed Gust Speed Precip Events Conditions
12:00 AM 64.0 °F 46.9 °F 54% 30.08 in - ESE 9.2 mph - N/A   Unknown
1:00 AM 62.2 °F 46.6 °F 57% 30.10 in - ESE 9.2 mph - N/A   Unknown
2:00 AM 61.2 °F 46.2 °F 58% 30.11 in - ESE 9.2 mph - N/A   Unknown
3:00 AM 59.2 °F 46.4 °F 63% 30.12 in - ESE 10.4 mph - N/A   Unknown
4:00 AM 58.3 °F 46.2 °F 64% 30.12 in - ESE 9.2 mph - N/A   Unknown
5:00 AM 57 °F 46 °F 57% 30.13 in - ESE 10.4 mph - -  
5:00 AM 56.7 °F 46.0 °F 68% 30.13 in - ESE 10.4 mph - N/A   Unknown
6:00 AM 55.9 °F 46.4 °F 70% 30.14 in - East 8.1 mph - N/A   Unknown
7:00 AM 58.1 °F 47.5 °F 68% 30.15 in - East 2.3 mph - N/A   Unknown
8:00 AM 63.9 °F 47.5 °F 55% 30.16 in - ESE 3.5 mph - N/A   Unknown
9:00 AM 68.4 °F 49.8 °F 51% 30.15 in - SE 2.3 mph - N/A   Unknown
10:00 AM 72.9 °F 50.0 °F 44% 30.13 in - WNW 1.2 mph - N/A   Unknown
11:00 AM 76 °F 48 °F 27% 30.11 in - West 2.3 mph - -  
11:00 AM 76.5 °F 48.4 °F 37% 30.11 in - West 2.3 mph - N/A   Unknown
12:00 PM 80.8 °F 48.2 °F 32% 30.08 in - West 3.5 mph - N/A   Unknown
1:00 PM 84.9 °F 48.4 °F 28% 30.04 in - West 3.5 mph - N/A   Unknown
2:00 PM 87.4 °F 44.8 °F 23% 30.02 in - West 3.5 mph - N/A   Unknown
3:00 PM 89.1 °F 42.1 °F 19% 29.99 in - WNW 3.5 mph - N/A   Unknown
4:00 PM 90.3 °F 40.1 °F 17% 29.97 in - NW 2.3 mph - N/A   Unknown
5:00 PM 89 °F 42 °F 11% 29.96 in - WNW 3.5 mph - -  
5:00 PM 89.2 °F 41.7 °F 19% 29.96 in - WNW 3.5 mph - N/A   Unknown
6:00 PM 86.2 °F 45.0 °F 24% 29.94 in - NNW 1.2 mph - N/A   Unknown
7:00 PM 85.3 °F 44.8 °F 24% 29.93 in - NNW 1.2 mph - N/A   Unknown
8:00 PM 80.1 °F 46.0 °F 30% 29.92 in - WSW 1.2 mph - N/A   Unknown
9:00 PM 74.8 °F 49.8 °F 41% 29.93 in - NNE 1.2 mph - N/A   Unknown
10:00 PM 78.4 °F 43.5 °F 29% 29.94 in - NW 2.3 mph - N/A   Unknown
11:00 PM 72 °F 46 °F 29% 29.94 in - North 1.2 mph - -  
11:00 PM 72.3 °F 46.4 °F 40% 29.94 in - North 1.2 mph - N/A   Unknown